CW7054 Weather Reports


Display with metric or nautical units.
time (UTC)temp
F
wind
direction
speed
MPH
gust
MPH
rain 1hr
in
rain 24hr
in
rain mn
in
humidity
%
barometer
mb
20260510023042 52 178 0.0 0.0 0.02 0.13 0.13 93 1010.7
20260510021542 52 178 0.0 1.0 0.03 0.13 0.13 93 1010.8
20260510020041 52 178 0.0 0.0 0.02 0.12 0.12 93 1011.0
20260510014540 53 178 0.0 3.0 0.03 0.12 0.12 93 1010.9
20260510013049 53 178 0.0 2.0 0.03 0.11 0.11 93 1010.9
20260510011538 53 177 0.0 2.0 0.02 0.10 0.10 93 1010.7
20260510010038 53 177 0.0 4.0 0.03 0.10 0.10 93 1010.3
20260510004537 53 177 0.0 4.0 0.03 0.09 0.09 93 1010.5
20260510003048 53 175 0.0 2.0 0.02 0.08 0.08 93 1010.8
20260510001536 53 175 0.0 2.0 0.03 0.08 0.08 92 1011.1
20260510000035 53 175 0.0 4.0 0.03 0.07 0.07 92 1010.7
20260509234551 53 178 0.0 4.0 0.02 0.06 0.06 92 1010.5
20260509233042 53 173 0.0 3.0 0.03 0.06 0.06 92 1010.4
20260509231542 53 174 1.0 6.0 0.03 0.05 0.05 92 1010.5
20260509230032 53 194 1.0 8.0 0.03 0.04 0.04 91 1010.6
20260509224533 53 167 2.0 9.0 0.04 0.04 0.04 91 1010.9
20260509223035 54 177 1.0 7.0 0.03 0.03 0.03 90 1011.0
20260509221530 54 190 1.0 7.0 0.02 0.02 0.02 90 1011.2
20260509220030 54 167 2.0 10.0 0.01 0.01 0.01 89 1010.8
20260509214529 55 130 2.0 8.0 0.00 0.00 0.00 88 1011.1
20260509213029 56 173 3.0 16.0 0.00 0.00 0.00 87 1010.9
20260509211527 56 161 2.0 12.0 0.00 0.00 0.00 85 1010.7
20260509210029 56 205 2.0 8.0 0.00 0.00 0.00 86 1010.8
20260509204529 56 286 1.0 9.0 0.00 0.00 0.00 87 1011.3
20260509203033 56 190 1.0 6.0 0.00 0.00 0.00 87 1011.4
20260509201523 56 167 2.0 11.0 0.00 0.00 0.00 86 1011.5
20260509200023 56 183 1.0 6.0 0.00 0.00 0.00 86 1011.4
20260509194523 56 180 1.0 7.0 0.00 0.00 0.00 86 1011.4
20260509193022 57 142 1.0 9.0 0.00 0.00 0.00 85 1011.2
20260509191524 57 180 1.0 11.0 0.00 0.00 0.00 84 1011.2
20260509190021 58 200 1.0 9.0 0.00 0.00 0.00 84 1011.1
20260509184529 58 177 1.0 11.0 0.00 0.00 0.00 83 1011.4
20260509183028 59 180 0.0 6.0 0.00 0.00 0.00 82 1011.3
20260509181519 59 187 1.0 6.0 0.00 0.00 0.00 78 1011.3
20260509180019 60 180 1.0 4.0 0.00 0.00 0.00 77 1011.4
20260509174517 60 170 0.0 5.0 0.00 0.00 0.00 78 1011.5
20260509173017 60 206 1.0 4.0 0.00 0.00 0.00 77 1011.8
20260509171520 61 196 0.0 11.0 0.00 0.00 0.00 78 1011.9
20260509170010 61 250 1.0 6.0 0.00 0.00 0.00 77 1012.2
20260509164507 61 178 2.0 5.0 0.00 0.00 0.00 76 1012.3
20260509163006 61 282 1.0 7.0 0.00 0.00 0.00 77 1012.5
20260509161510 61 178 1.0 7.0 0.00 0.00 0.00 77 1012.5
20260509154617 59 178 2.0 6.0 0.00 0.00 0.00 79 1012.8
20260509153057 59 180 2.0 7.0 0.00 0.00 0.00 80 1012.9
20260509151600 58 182 0.0 5.0 0.00 0.00 0.00 80 1013.0
20260509150109 58 180 0.0 6.0 0.00 0.00 0.00 79 1013.0
20260509144602 58 180 2.0 5.0 0.00 0.00 0.00 79 1013.1
20260509143102 58 177 1.0 5.0 0.00 0.00 0.00 80 1013.1
20260509141554 58 173 0.0 5.0 0.00 0.00 0.00 81 1012.9
20260509140052 56 173 1.0 6.0 0.00 0.00 0.00 83 1012.9
20260509134545 55 180 1.0 6.0 0.00 0.00 0.00 83 1013.0
20260509133050 55 176 1.0 4.0 0.00 0.00 0.00 83 1013.1
20260509131543 55 182 1.0 5.0 0.00 0.00 0.00 82 1013.1
20260509130047 55 188 0.0 8.0 0.00 0.00 0.00 81 1013.0
20260509124550 55 189 0.0 4.0 0.00 0.00 0.00 82 1012.9
20260509123042 55 180 0.0 5.0 0.00 0.00 0.00 83 1013.1
20260509121551 55 211 0.0 8.0 0.00 0.00 0.00 84 1013.1
20260509120042 54 194 0.0 5.0 0.00 0.00 0.00 87 1013.1
20260509114552 54 159 0.0 6.0 0.00 0.00 0.00 88 1013.2
20260509113033 53 175 0.0 3.0 0.00 0.00 0.00 89 1013.1
20260509111534 52 176 0.0 4.0 0.00 0.00 0.00 90 1013.2
20260509110032 52 187 0.0 2.0 0.00 0.00 0.00 90 1013.1
20260509104532 52 188 0.0 1.0 0.00 0.00 0.00 90 1012.9
20260509103031 52 188 0.0 0.0 0.00 0.00 0.00 90 1013.0
20260509101531 52 188 0.0 1.0 0.00 0.00 0.00 90 1012.6
20260509100131 52 188 0.0 0.0 0.00 0.00 0.00 90 1012.6
20260509094533 52 188 0.0 3.0 0.00 0.00 0.00 90 1012.7
20260509093028 52 189 0.0 1.0 0.00 0.00 0.00 90 1012.5
20260509091526 52 189 0.0 2.0 0.00 0.00 0.00 90 1012.5
20260509090047 51 190 0.0 1.0 0.00 0.00 0.00 89 1012.6
20260509084527 51 190 0.0 5.0 0.00 0.00 0.00 89 1012.7
20260509083041 51 190 0.0 4.0 0.00 0.00 0.00 89 1012.5
20260509081527 51 191 0.0 3.0 0.00 0.00 0.00 89 1012.6
20260509080020 51 191 0.0 2.0 0.00 0.00 0.00 88 1012.8
20260509074530 52 191 0.0 1.0 0.00 0.00 0.00 88 1012.6
20260509073020 52 191 0.0 0.0 0.00 0.00 0.00 87 1012.7
20260509071521 52 191 0.0 2.0 0.00 0.00 0.00 87 1012.8
20260509070016 52 190 0.0 0.0 0.00 0.00 0.00 87 1013.1
20260509064514 52 191 0.0 2.0 0.00 0.00 0.00 86 1012.8
20260509063012 52 191 0.0 1.0 0.00 0.00 0.00 86 1013.2
20260509061511 52 191 0.0 3.0 0.00 0.00 0.00 85 1013.1
20260509060014 52 192 0.0 3.0 0.00 0.00 0.00 85 1013.1
20260509054509 52 192 0.0 2.0 0.00 0.00 0.00 84 1013.1
20260509053017 52 192 0.0 2.0 0.00 0.00 0.00 84 1013.1
20260509051508 53 192 0.0 0.0 0.00 0.00 0.00 83 1013.1
20260509050015 53 192 0.0 0.0 0.00 0.00 0.00 82 1012.9
20260509044504 53 192 0.0 0.0 0.00 0.00 0.00 82 1012.9
20260509043005 53 192 0.0 3.0 0.00 0.00 0.00 81 1013.2
20260509041603 53 192 0.0 2.0 0.00 0.00 0.00 81 1013.2
20260509034607 53 193 0.0 3.0 0.00 0.00 0.00 81 1013.3
20260509033109 53 194 0.0 4.0 0.00 0.00 0.00 81 1013.2
20260509031557 53 248 0.0 3.0 0.00 0.00 0.00 82 1013.3
20260509030057 53 253 0.0 3.0 0.00 0.00 0.00 82 1013.3
20260509024604 53 263 0.0 6.0 0.00 0.00 0.00 82 1013.3